Showing default

COSMOS 1690, 16138

Orbit data source: Space-Track

COSMOS 1690, 16138 is a payload satellite owned by GUKOS (CIS) in LEO that was launched on Wed, 09 Oct 1985 UTC via a TSIKLON-3 launch vehicle from the Plesetsk Missile And Space Complex (PKMTR). Payload-class satellites include a variety of spacecraft equipped with specific instruments for various scientific and technological missions. These include communications satellites like Starlink; space stations such as the ISS; scientific satellites like the Hubble; Earth observation satellites from companies like Planet Labs, Umbra, and HawkEye 360; GPS; miniature CubeSats for education and research; and military/defense satellites.

Loading next visibility...
Identifier
16138, 1985-094A
Orbit
LEO
Country
Flag of CISCIS
Related business
Manufacturer
NPO PM
Mission
Spacecraft
Bus & Motor
STRELA-3, Unknown motor
Mass
225 kg wet, 225 kg dry
Launch date (UTC)
1985-10-09 (40 years ago)
Launch vehicle
TSIKLON-3
Launch site
Plesetsk Missile And Space Complex (PKMTR)
Object type
Payload
Rocket body
Debris
Shape & HBR
Unknown
Radar Cross Section
Large (>1 m²)

Expand to show TLE details & history
Last TLE update: 10 hours ago

TLE from 10 hours ago
0 COSMOS 1690
1 16138U 85094A   25298.69576367  .00000043  00000-0  17032-3 0  9993
2 16138  82.6124  11.1636 0022956 109.6074  45.7398 12.66097796850319
Epoch: 2025-10-25T16:41Z
TLE epoch observation values (Epoch: 2025-10-25T16:41:53.981Z)
Latitude
24.27093°
Longitude
-96.96892°
Altitude
1,388.231 km
Speed
7.173 km/s
True Right ascension
12h 31m 18s
True Declination
24° 09' 10"
Sunlit
Object was in daylight at epoch
Visualization orbit readout
Latitude
Unknown
Longitude
Unknown
Altitude
Unknown
Speed
Unknown
Apparent Right ascension
Unknown
Apparent Declination
Unknown
Sunlit
N/A
Visualization observer readout
Local Sidereal Time
22:16:07
Azimuth
Unknown
Elevation
Unknown
Doppler factor
Unknown
Orbital elements
Apogee altitude
1,413.035 km
Perigee altitude
1,377.346 km
Semi-major axis
7,773.328 km
Eccentricity
0.0023
Inclination
82.6124°
RAAN
11.1636°
Arg. of periapsis
109.6074°
True anomaly
45.92857°
Mean anomaly
45.7398°
Eccentric anomaly
45.83415°
Mean motion
3.16689 °/min
Orbital period
113.68 mins
BSTAR
0.00017032
Loading maneuver chart data...
Computing Atmospheric mass density...
Loading historical data...
Loading historical data...
Loading historical data...
Loading historical data...
Loading historical data...
Loading historical data...
Loading historical data...

Documentation

Showing up to 5 results
|